Regional Weather Roundup
Issued by NWS Northern Indiana

Home | Current Version | Previous Version | Graphics & Text | Print | Product List | Glossary On
Versions: 1 2 3 4 5 6 7 8 9 10 11 12 13 14 15 16 17 18 19 20 21 22 23 24 25 26 27 28 29 30 31 32 33 34 35 36 37 38 39 40 41 42 43 44 45 46 47 48 49 50
000
ASUS43 KIWX 210200
RWRIWX

KIWX WEATHER ROUNDUP
NATIONAL WEATHER SERVICE NORTHERN INDIANA
1000 PM EDT WED SEP 20 2017

NOTE: "FAIR" INDICATES FEW OR NO CLOUDS BELOW 12,000 FEET WITH NO
SIGNIFICANT WEATHER AND/OR OBSTRUCTIONS TO VISIBILITY.

* THESE STATIONS ARE NOT UNDER NWS QUALITY CONTROL. THEY ALSO MAY NOT
  REPORT WEATHER SUCH AS PRECIPITATION OR FOG.

INZ001>027-210300-
NORTHERN INDIANA

CITY           SKY/WX    TMP DP  RH WIND       PRES   REMARKS
GARY*          PTCLDY    84  66  54 S7        29.89R
MICHIGAN CITY* CLEAR     79  68  69 S6        29.91S
KNOX*          CLEAR     72  68  88 SE6       29.92R
SOUTH BEND     CLEAR     78  69  73 S10       29.93S
GOSHEN         CLEAR     76  67  73 SE7       29.95R
MONTICELLO*    CLEAR     78  68  70 SE6       29.92S
WARSAW*        CLEAR     73  68  83 CALM      29.95S
AUBURN*        CLEAR     72  66  83 CALM      29.98S
FORT WAYNE     CLEAR     74  67  78 SE6       29.98S
PERU/GRISSOM   CLEAR     75  69  83 S7        29.94S

$$
INZ028>050-210300-
CENTRAL INDIANA

CITY           SKY/WX    TMP DP  RH WIND       PRES   REMARKS
LAFAYETTE      CLEAR     78  69  73 S7        29.92F
KOKOMO*        CLEAR     73  69  87 S8        29.97R
MUNCIE*        CLEAR     79  69  71 S8        29.99S
INDIANAPOLIS   CLEAR     78  69  73 S12       29.97S

$$
MIZ043>046-050>051-056>058-064>065-071>073-077>080-210300-
SOUTHWEST LOWER MICHIGAN

CITY           SKY/WX    TMP DP  RH WIND       PRES   REMARKS
BATTLE CREEK   CLEAR     76  69  79 S7        29.96S
BENTON HARBOR  CLEAR     77  66  68 SE8       29.90S
COLDWATER*     CLEAR     74  70  88 SE5       29.97S
HILLSDALE*     CLOUDY    72  66  83 SE6       29.99S
HOLLAND        CLEAR     78  68  71 S8        29.90F
GRAND RAPIDS   PTCLDY    75  68  78 SE8       29.92S
KALAMAZOO      CLEAR     77  67  71 S6        29.94S
STURGIS*       CLEAR     75  69  79 SE5       29.96R
THREE RIVERS*  FAIR      77  68  74 SE6       29.95S

$$
OHZ001>008-015>018-024>025-210300-
NORTHWEST OHIO

CITY           SKY/WX    TMP DP  RH WIND       PRES   REMARKS
DEFIANCE       CLEAR     71  66  84 SE5       29.98S
FINDLAY        CLEAR     74  64  71 SE8       29.99S
TOLEDO EXPRESS CLEAR     71  70  96 E5        29.99S
TOLEDO METCALF CLEAR     70  66  87 E6        30.01R
LIMA           CLEAR     71  65  81 SE6       30.01S

$$
AND FOR LAKE MICHIGAN COASTAL AND OPEN LAKE BUOY OBSERVATIONS

STATION/POSITION TEMP    WIND        PRES    VSBY  WAVE
                 AIR SEA DIR/SP/G                  HT/PER
                 (F)     (DEG/KT/KT) (MB)    (MI)  (FT/S)
CALUMET HARBOR    84     160/  9/ 12 1010.9R
MICHIGAN CITY     81     150/ 10/ 12   N/A
BURNS HARBOR      82     170/  8/ 14 1012.2S
SAINT JOSEPH      80     160/  2/  6 1012.9
SOUTH LAKE BUOY   74 69  140/ 14/ 16 1010.6          1/ 3
4 MI NW BRIDGMAN  76 69  180/ 10/ 12 1011.8F         1
MICHIGAN CITY     75 70  170/  8/ 10   N/A           1

$$
&&




USA.gov is the U.S. government's official web portal to all federal, state and local government web resources and services.